User: anonymous   Login
Location: Unspecified
(0.0000°N, 0.0000°E)
Time: 17:14:00
(UTC+00:00)
Language:

UFO F6 - Orbit

View from above orbital plane
View from above orbital plane
View from above satellite
View from above satellite

Ground track
Ground track

The orbit data is extracted from the following two-line orbital elements,

1 23696U 95057A   20058.61705022 -.00000086  00000-0  00000+0 0  9994
2 23696   9.8066  24.5122 0002652  24.5394 170.1471  0.98766758 89098
Epoch (UTC): 27 February 2020 14:48:33
Eccentricity: 0.0002652
inclination: 9.8066°
perigee height: 36202 km
apogee height: 36225 km
right ascension of ascending node: 24.5122°
argument of perigee: 24.5394°
revolutions per day: 0.98766758
mean anomaly at epoch: 170.1471°
orbit number at epoch: 8909

The dashed part of the orbit path shows where the satellite is in the earth's shadow,  

DLR